Tracking 25709 objects as of 24-May-2022
HD Live streaming from Space Station
objects crossing your sky now

SL-8 R/B

Track SL-8 R/B now!
10-day predictions


NORAD ID: 13066
Int'l Code: 1982-012B
Perigee: 949.7 km
Apogee: 1,012.2 km
Inclination: 82.9 °
Period: 104.6 minutes
Semi major axis: 7351 km
RCS: 4.3932 m2 (large)
Launch date: February 17, 1982
Source: Commonwealth of Independent States (former USSR) (CIS)
Launch site: PLESETSK MISSILE AND SPACE COMPLEX (PKMTR)

Note: This is a ROCKET BODY
aabbcc
Your satellite tracking list
Your tracking list is empty




NASA's NSSDC Master Catalog

Two Line Element Set (TLE):
1 13066U 82012B   22143.92492529  .00000162  00000-0  14799-3 0  9995
2 13066  82.8947 312.0520 0042507 234.3608 236.0990 13.77195940 22956
Source of the keplerian elements: AFSPC